Location: Neuvy Saint Sepulchre
(46.5953°N, 1.8122°E)
Time: 09:28:50
(UTC+02:00)

ISS - Pass Details

Date: 12 July 2021
Orbit: 419 x 421 km, 51.6° (Epoch: 04 August)

Event Time Altitude Azimuth Distance (km) Brightness Sun altitude
Rises 05:16:24 0° 296° (WNW) 2,371 -0.1 -8.2°
Reaches altitude 10° 05:18:30 10° 297° (WNW) 1,504 -1.1 -7.9°
Maximum altitude 05:21:53 87° 27° (NNE) 425 -3.7 -7.5°
Drops below altitude 10° 05:25:15 10° 116° (ESE) 1,497 -0.7 -7.1°
Sets 05:27:20 0° 117° (ESE) 2,358 0.3 -6.8°
